Wind_Speed
50 50 50 50 50 50 50 50 50 49 49 49 49 48 48 48 47 46 46 45 44 43 42 41 41 41 41 41 40 38 37 36 35 33 32 31 31 30 29 28 27 25 24 23 22 22 22 22 22 22 21 19 18 15 12 11 13 17 19 18 16 17 18 19 19 19 18 16 15 14 10 5 5 9 11 8 7 7 8 8 10 12 12 13 14 15 13 10
49 49 48 48 48 48 48 48 48 47 47 47 47 47 47 47 47 46 45 45 45 44 43 42 41 41 42 42 41 39 38 37 36 34 32 31 31 30 29 28 27 25 23 22 21 21 21 21 22 22 21 20 18 17 16 15 15 18 21 18 16 16 17 17 18 19 18 17 17 15 9 6 8 10 12 10 9 11 11 13 13 13 14 14 15 15 12 10
50 49 49 48 47 47 47 46 46 46 45 45 45 45 45 45 45 44 44 44 44 44 43 43 42 42 43 43 42 41 40 38 37 35 33 32 31 30 29 28 26 25 23 21 20 20 20 21 21 22 21 20 19 18 17 17 17 18 18 16 14 13 14 15 16 19 19 19 18 15 9 9 12 12 13 12 10 12 14 16 16 15 15 15 15 13 10 11
51 51 50 49 48 47 46 46 45 45 44 44 43 43 43 44 43 43 43 43 43 43 43 43 42 42 44 44 43 42 41 40 38 36 34 33 32 31 30 28 27 25 23 21 20 20 20 20 21 21 22 21 20 20 19 19 20 18 16 15 14 11 13 14 16 19 18 18 16 13 10 11 14 13 13 15 13 15 17 16 16 17 17 16 14 10 9 12
51 51 51 50 49 48 47 46 45 45 44 43 43 43 43 43 43 42 42 42 42 42 42 42 42 43 44 44 43 43 42 41 40 38 36 34 32 31 30 29 27 25 24 22 20 20 20 20 21 21 22 21 21 21 21 22 21 18 17 16 14 12 15 16 16 18 18 17 15 12 11 12 14 14 14 17 19 18 18 18 19 20 18 15 11 8 11 14
52 51 51 51 50 49 48 47 46 45 44 44 44 43 43 43 43 42 42 42 42 42 42 42 42 43 44 45 44 44 43 42 41 39 37 35 33 32 30 29 28 26 25 23 21 20 20 20 21 21 21 21 22 22 22 24 22 19 18 16 14 15 18 19 16 17 19 17 15 14 13 12 13 15 15 18 19 19 19 21 21 20 17 12 9 12 16 16
52 52 51 51 50 49 49 48 47 46 45 45 45 45 44 44 44 43 43 43 43 43 42 43 42 43 44 45 44 44 44 43 42 40 38 36 34 32 30 29 28 27 26 24 22 21 21 20 21 21 21 21 22 23 23 25 23 21 21 18 16 16 20 21 17 18 21 19 17 16 13 12 13 15 16 18 17 16 19 21 20 19 16 12 12 17 20 19
52 52 52 51 51 50 49 49 48 47 46 46 45 45 45 45 44 44 43 43 43 43 43 43 42 43 44 44 44 44 44 44 43 41 39 37 34 32 30 30 29 28 27 25 23 22 22 21 21 21 20 21 23 24 25 26 26 24 24 21 18 17 21 23 18 18 21 19 18 16 14 13 15 15 16 18 16 16 18 20 19 18 16 15 16 20 21 21
51 51 51 51 51 50 50 49 49 48 48 47 46 46 46 45 45 44 44 44 44 43 43 43 43 43 44 44 44 44 44 44 43 42 40 37 34 32 31 31 30 29 28 26 24 23 23 22 21 21 21 21 23 25 26 29 29 27 27 25 21 19 21 25 22 19 19 17 16 16 16 16 16 16 17 18 17 17 17 18 18 18 18 18 19 21 21 20
49 50 50 50 50 50 50 50 50 49 48 48 47 47 46 46 45 45 44 44 45 44 44 43 43 43 43 44 44 44 44 44 43 42 40 38 35 32 31 31 31 30 29 27 25 24 24 24 22 21 21 22 23 25 27 29 31 29 29 28 26 24 23 25 26 21 18 16 14 14 15 17 17 17 18 17 18 18 17 18 19 19 19 20 21 22 21 21
47 48 48 49 49 50 50 50 50 50 49 48 47 47 47 46 46 46 45 45 45 45 44 44 44 43 43 44 44 44 44 44 43 42 40 37 34 32 31 31 31 31 30 28 27 25 25 25 23 22 22 22 24 26 27 29 31 31 30 31 30 28 25 26 27 24 21 17 15 16 16 16 17 18 18 16 17 19 20 21 21 21 21 22 23 22 20 20
45 46 46 47 48 48 48 49 49 49 49 48 47 47 47 47 47 46 46 46 46 46 45 45 44 43 43 43 43 44 45 45 44 42 39 36 33 31 30 31 32 32 31 29 28 27 26 26 25 23 23 23 25 27 28 29 31 32 31 31 31 30 28 28 28 26 24 21 18 19 19 19 19 21 20 18 20 22 22 23 24 23 24 24 23 21 19 19
45 45 45 46 46 46 47 47 47 48 47 47 47 47 48 48 47 47 47 47 47 47 46 46 45 44 44 43 43 44 45 45 44 42 38 34 31 30 30 30 31 32 32 31 29 28 28 28 27 25 23 24 26 28 29 29 30 30 31 31 30 29 28 30 30 27 26 24 22 20 20 22 22 22 21 21 22 24 24 24 24 23 23 23 21 21 20 20
44 44 44 45 45 46 46 46 47 47 46 46 46 47 48 47 46 46 47 46 47 46 46 46 45 45 44 42 43 45 45 45 44 41 37 33 31 30 30 30 31 32 32 32 30 29 29 29 29 27 24 25 27 28 29 30 29 29 29 29 29 29 29 30 30 29 28 25 23 21 20 21 22 22 22 22 23 24 24 24 23 23 22 22 21 21 21 20
43 43 43 43 44 44 45 45 46 45 45 44 44 46 47 45 44 45 45 45 46 46 47 46 46 45 43 41 43 44 45 45 43 39 36 33 30 29 29 31 31 32 33 33 31 29 29 30 30 28 26 26 27 28 30 31 30 29 28 27 27 28 29 29 29 29 29 26 23 21 20 21 23 24 24 23 24 25 24 24 23 23 23 22 21 22 21 20
43 43 43 42 42 43 43 43 44 43 42 41 41 43 44 43 42 43 44 44 45 46 46 46 46 45 43 41 42 45 46 43 40 38 37 33 29 30 32 32 31 32 34 34 30 29 29 30 31 29 27 27 28 29 31 32 32 30 28 28 27 27 27 28 29 28 28 28 25 21 19 22 24 26 24 23 25 25 23 23 24 24 24 23 23 22 21 21
43 43 42 42 42 42 42 42 42 42 40 39 40 42 42 41 41 42 42 43 44 45 45 45 44 44 43 41 43 45 44 40 38 38 36 32 31 33 34 31 30 33 35 34 30 29 30 31 31 31 29 28 29 30 31 33 34 32 30 29 27 26 27 28 29 27 27 27 26 22 20 21 22 22 21 23 26 25 22 23 23 23 23 23 23 22 22 24
42 42 42 42 42 42 42 42 42 41 40 39 40 41 41 41 41 41 42 43 44 44 43 43 42 42 41 41 42 43 40 38 38 37 35 34 34 35 32 31 31 34 35 34 31 30 30 31 32 32 31 29 30 32 33 33 36 35 33 31 30 28 28 30 29 27 25 24 24 24 23 21 19 19 20 22 25 24 21 21 23 23 24 24 24 25 24 23
38 39 41 42 42 42 42 42 42 41 40 40 41 41 42 42 43 43 44 45 45 45 43 42 41 40 40 39 40 39 38 37 37 35 35 35 35 33 31 31 33 34 35 34 32 31 31 33 32 33 33 31 31 34 34 34 36 38 35 33 33 30 30 32 31 28 27 25 25 26 25 23 21 21 22 24 26 25 24 24 25 26 28 27 26 24 22 20
32 33 35 37 39 41 42 42 41 40 40 40 41 42 43 44 45 46 47 47 46 45 44 44 42 41 40 39 39 39 38 37 35 35 35 35 35 33 32 33 35 36 35 33 33 33 33 33 33 33 34 33 33 35 36 35 37 39 38 36 35 34 32 33 33 31 30 29 27 27 26 26 25 25 26 26 27 28 28 28 28 28 28 26 23 21 21 20
29 28 29 31 33 35 37 38 38 38 39 41 42 42 44 45 46 48 48 47 46 45 45 45 43 42 42 41 41 40 39 38 37 36 36 36 35 34 34 36 37 37 33 32 35 37 35 33 33 34 35 34 34 35 35 36 37 39 40 38 37 37 35 33 33 33 32 31 29 27 26 26 26 26 26 27 28 28 28 28 27 27 26 24 23 23 23 23
29 27 27 27 28 29 30 30 31 33 35 38 40 42 44 46 47 48 47 46 45 45 45 44 44 44 43 43 43 42 41 41 40 38 38 37 36 36 36 37 38 35 32 33 39 39 35 32 33 34 35 35 35 35 36 37 38 39 41 40 38 38 38 35 34 33 34 34 32 30 28 26 25 24 24 25 26 26 27 26 24 23 23 23 24 25 25 24
28 27 26 26 26 26 25 24 24 26 29 32 35 38 40 42 43 44 43 42 42 42 43 43 43 42 41 43 44 44 45 44 42 41 41 40 39 37 36 37 36 33 32 36 41 39 34 32 33 35 36 36 36 36 37 39 39 40 41 42 41 40 39 38 35 33 33 34 34 33 31 29 26 24 24 23 23 24 25 25 24 25 25 25 25 25 24 23
26 27 27 26 25 24 23 21 21 23 25 28 29 31 32 34 34 34 33 34 34 35 37 36 36 35 35 38 40 42 46 45 45 44 44 44 42 39 38 39 36 33 35 39 41 39 34 34 35 36 37 37 36 37 38 40 40 40 41 42 43 42 41 40 38 35 33 33 33 33 32 31 29 27 25 24 24 24 24 24 24 25 27 27 26 26 25 24
24 27 28 27 26 24 22 21 21 23 24 26 26 26 27 27 26 26 27 27 26 27 29 28 27 25 26 30 35 39 42 43 45 46 47 48 45 41 40 38 36 35 38 40 41 39 36 37 36 36 37 37 37 37 38 41 40 40 41 41 43 43 43 42 40 38 35 33 33 31 29 29 29 28 27 26 25 24 24 24 24 24 26 27 27 28 28 27
22 25 27 27 26 25 23 22 23 24 24 25 25 25 24 24 25 25 25 25 23 24 26 24 22 20 22 30 34 36 38 41 43 44 47 49 47 43 41 40 39 39 39 39 41 40 39 40 38 36 38 39 38 36 38 41 41 40 40 40 41 41 42 42 41 39 37 35 34 32 30 29 28 28 27 27 26 25 25 25 25 25 26 27 28 28 27 24
20 23 25 28 28 27 26 25 26 25 24 25 25 25 25 26 27 26 26 25 24 25 27 24 22 22 25 31 33 34 37 37 37 41 47 49 48 45 43 42 41 40 39 39 43 42 41 43 40 37 39 40 39 38 38 41 41 40 40 39 39 39 39 40 40 39 38 36 35 33 32 30 29 29 28 28 27 26 26 26 26 26 27 28 27 26 25 23
19 21 24 26 28 29 29 28 28 26 26 27 28 28 28 28 28 28 28 27 26 27 28 26 24 25 28 32 32 34 36 34 35 42 44 44 45 45 45 45 43 40 39 41 45 43 42 44 41 38 38 40 40 39 38 41 42 41 40 39 39 38 38 38 38 38 37 35 34 33 33 31 31 30 29 29 28 28 28 29 30 30 31 31 31 29 27 26
17 19 22 24 26 29 30 31 30 30 30 30 30 31 31 31 31 31 31 30 28 28 29 28 27 27 30 33 34 35 35 35 38 41 39 38 41 44 48 48 44 40 40 43 45 43 43 45 40 37 39 40 41 39 39 41 42 43 41 38 38 38 37 36 36 37 37 35 33 32 31 31 31 31 31 31 31 31 32 33 33 34 34 35 34 32 30 28
18 18 20 23 25 27 29 31 33 34 34 33 33 34 34 34 34 34 33 32 30 30 30 30 30 30 31 34 35 35 36 36 38 38 36 37 39 42 47 49 45 43 43 44 44 44 45 44 42 41 42 41 41 41 42 42 44 45 43 39 38 38 37 37 36 36 36 35 33 32 31 30 30 30 31 32 33 34 35 35 36 35 35 34 33 31 30 28
19 18 18 20 23 25 27 30 32 34 36 36 37 37 37 37 37 36 35 34 33 33 33 32 32 32 32 34 35 35 35 35 37 37 36 37 38 40 44 46 47 46 46 46 46 47 46 45 46 47 43 42 42 42 43 43 45 46 43 40 39 38 38 38 36 35 35 34 34 33 32 30 29 29 30 31 31 32 33 33 34 34 34 33 31 30 28 27
21 20 19 18 20 23 26 28 29 31 34 37 39 39 40 40 39 38 37 37 37 36 35 34 33 33 34 35 35 35 34 33 36 37 37 37 38 40 42 45 48 49 49 51 50 49 49 49 50 48 43 43 43 43 44 44 45 44 42 41 40 39 39 38 36 35 35 35 34 34 33 32 31 30 30 30 30 31 31 31 31 31 31 30 29 28 27 26
24 22 21 19 19 20 23 25 27 28 31 33 35 38 40 41 40 40 40 40 39 38 36 35 35 34 35 35 35 35 33 32 34 35 36 36 38 39 40 43 47 48 51 53 51 50 51 51 51 48 45 45 44 44 45 46 46 44 43 43 41 41 42 39 37 35 35 35 35 34 34 33 33 31 30 30 30 30 30 31 31 30 30 29 29 28 27 27
26 24 23 21 20 19 21 22 24 27 28 29 31 33 35 37 39 39 40 41 40 38 37 36 34 33 33 34 35 35 34 33 33 34 34 35 36 37 38 40 43 47 51 51 49 50 51 51 52 51 49 48 46 45 45 46 46 44 43 44 43 44 44 41 38 36 35 35 35 35 35 33 32 31 30 31 31 30 30 31 31 30 29 29 28 28 27 27
28 26 25 23 22 21 21 21 21 23 26 27 28 28 29 31 33 35 36 36 34 33 33 32 31 30 31 33 34 35 34 33 33 33 33 34 35 36 37 39 42 45 49 51 51 51 52 53 55 53 50 48 47 45 45 45 46 44 43 44 47 48 47 43 39 36 34 35 35 35 34 33 32 31 31 32 32 32 32 32 32 32 30 29 29 29 29 30
31 29 27 26 25 23 23 21 20 20 22 23 24 25 26 27 28 29 29 28 28 28 28 28 28 28 29 29 30 31 31 32 33 33 32 33 34 34 36 37 40 42 46 50 53 53 55 58 58 54 51 51 49 47 46 46 46 44 44 46 49 50 48 45 41 38 36 35 34 34 34 33 32 32 32 32 32 33 33 32 33 33 33 33 34 34 34 35
33 31 30 28 27 26 25 23 21 20 19 19 20 22 24 24 25 25 24 25 26 26 27 26 26 26 26 26 27 27 27 28 31 33 33 33 33 33 34 36 38 40 44 49 52 55 59 60 58 55 54 54 51 49 47 47 46 46 47 47 47 48 48 45 42 40 38 37 36 35 34 33 33 32 32 32 33 33 33 33 32 33 34 35 36 36 37 37
34 33 32 31 29 28 26 25 22 20 18 17 18 21 22 22 23 24 25 26 27 27 26 26 25 24 23 23 24 25 25 27 31 34 34 34 33 34 34 35 37 40 43 47 50 54 58 59 57 57 56 54 51 50 49 48 48 48 48 47 46 47 47 45 43 41 39 38 37 36 35 35 34 33 32 31 32 33 33 33 33 34 34 35 34 34 34 33
35 35 34 33 31 30 28 26 24 21 18 17 18 20 20 21 24 26 27 28 27 27 26 25 24 23 22 21 23 25 27 30 33 34 34 34 34 34 34 35 36 39 42 44 48 53 56 57 58 58 56 53 52 51 50 50 50 49 49 48 47 46 46 43 41 40 39 39 38 36 37 37 36 33 31 31 33 34 33 33 33 34 34 33 33 32 31 30
36 36 36 35 33 32 30 28 26 23 19 18 19 19 20 22 26 27 28 28 27 26 25 24 23 22 20 19 21 24 28 31 33 34 34 34 34 34 35 36 36 37 38 40 46 51 54 57 59 58 56 53 53 53 53 53 52 51 49 49 48 47 46 43 41 40 41 40 39 38 39 38 36 35 33 33 33 33 33 33 33 34 33 33 32 32 31 30
37 37 37 37 35 34 32 30 28 25 22 20 20 20 21 23 25 27 28 27 26 26 26 24 23 21 19 17 18 23 28 31 33 35 36 36 35 36 36 37 38 38 37 39 42 46 49 54 58 58 56 55 55 55 55 55 53 51 49 48 48 48 48 45 43 43 43 43 42 40 40 38 37 37 35 33 34 33 32 32 32 32 33 33 33 33 32 31
39 38 38 38 37 36 34 32 30 28 26 24 22 21 21 21 23 25 26 25 26 27 27 26 24 22 19 17 17 21 27 32 35 37 38 39 39 39 38 37 38 37 37 39 41 44 48 53 57 56 56 57 58 57 56 54 52 51 49 49 49 49 48 47 47 47 46 44 43 41 39 39 38 37 36 35 35 34 32 31 31 31 32 33 33 33 32 32
41 40 39 39 39 38 37 35 33 31 29 26 23 22 20 19 22 24 25 25 26 28 28 27 26 23 21 18 17 19 24 30 35 38 40 41 41 39 37 36 36 37 38 39 41 42 45 48 52 54 56 58 58 57 56 53 51 51 50 49 49 48 48 48 50 50 47 45 43 40 40 40 39 37 36 35 35 33 32 32 31 31 32 32 32 32 32 31
42 41 41 40 40 40 39 37 36 34 32 28 25 23 21 20 23 25 24 25 26 26 27 28 28 26 23 20 18 18 21 27 34 39 42 43 42 40 38 36 35 36 38 40 41 41 42 44 49 53 55 56 56 57 55 53 52 52 52 51 50 50 50 50 51 50 47 45 43 41 42 41 39 37 36 35 34 33 31 31 31 32 32 32 31 31 30 30
42 43 42 41 41 41 40 39 38 36 33 30 27 25 22 22 23 24 23 24 25 26 28 30 30 28 26 23 20 19 20 24 32 40 44 44 43 41 39 37 36 37 39 41 43 42 41 44 47 49 51 53 55 55 55 55 55 54 54 53 52 52 52 51 50 47 45 45 44 43 43 42 40 39 36 34 33 32 31 31 32 32 32 32 31 29 29 29
41 43 43 43 42 42 41 41 40 38 35 33 31 29 26 25 25 24 24 24 26 28 31 32 31 29 27 25 21 19 19 22 29 37 42 43 44 43 41 38 37 38 39 40 41 42 43 43 44 45 48 52 55 56 57 57 56 55 55 55 55 54 52 51 50 47 45 46 44 43 43 43 42 40 36 33 33 32 32 33 33 32 32 33 32 29 28 29
39 42 44 44 44 43 42 42 41 40 38 36 34 32 30 28 27 26 25 25 27 30 31 31 30 28 27 26 23 21 21 22 27 34 39 41 42 43 41 39 38 38 38 39 40 43 44 43 43 43 47 52 55 57 58 58 56 55 55 55 55 54 52 51 50 48 48 46 44 44 44 42 41 38 36 34 33 33 33 34 33 31 32 33 32 30 29 29
36 40 43 44 45 44 44 43 43 42 41 38 37 35 33 31 30 28 26 25 27 29 29 29 28 27 27 26 25 25 24 24 26 31 36 40 42 42 42 41 40 38 37 37 38 41 44 45 45 46 47 51 54 56 57 57 56 55 55 54 53 52 51 51 49 49 47 45 44 45 44 41 39 38 37 36 35 34 34 34 33 32 32 32 31 29 29 30
32 38 41 44 45 46 45 44 44 44 43 41 40 38 36 34 33 30 27 26 26 28 28 28 27 26 26 25 26 27 27 26 26 28 33 38 41 43 43 42 40 38 36 36 36 39 43 46 47 48 50 52 54 54 54 55 55 55 55 54 52 51 51 49 49 50 48 45 45 45 43 41 40 40 39 38 36 35 34 34 34 33 32 32 30 29 30 31
29 34 39 42 45 47 46 45 45 45 44 44 42 41 39 37 35 32 29 27 27 28 28 27 25 25 26 26 27 28 29 28 28 27 30 36 41 43 43 42 40 38 37 36 35 38 42 45 47 49 51 53 53 53 52 53 54 55 55 53 52 52 51 49 50 53 51 48 46 44 41 41 42 41 40 38 37 35 34 34 34 34 33 32 31 31 31 32
26 30 35 40 43 46 47 47 47 46 46 46 45 44 42 40 37 34 30 29 29 29 28 26 24 25 26 27 27 28 29 31 31 30 30 34 39 43 44 43 40 38 39 37 35 38 41 44 45 47 50 52 53 52 53 54 54 54 54 53 52 52 51 50 51 53 51 49 47 44 42 42 42 42 40 38 37 36 35 35 34 34 34 34 33 32 32 33
25 27 32 37 41 44 47 48 48 48 48 48 47 46 45 43 39 36 32 31 31 31 29 27 25 25 27 27 26 26 30 33 34 33 32 34 38 42 44 43 41 40 39 38 36 37 40 43 45 46 49 51 52 53 55 56 55 55 54 53 52 51 51 50 51 52 50 49 48 45 43 43 44 42 40 39 38 37 36 36 36 36 35 35 34 33 33 34
Wind_Direction
263 264 264 264 265 266 266 266 266 267 267 267 268 268 269 269 268 268 268 268 268 268 268 268 268 269 269 270 270 270 270 270 271 272 272 274 275 276 277 277 277 276 273 269 266 262 259 254 250 246 244 243 238 233 222 222 236 232 227 226 223 224 223 220 218 215 211 206 202 204 210 203 202 209 199 200 216 211 209 220 235 240 246 250 255 267 279 297
263 263 264 264 264 265 265 266 266 266 267 267 267 268 268 268 268 268 268 268 267 267 267 267 267 267 268 268 269 269 269 269 270 270 271 272 273 274 275 275 275 274 272 268 265 261 258 253 248 244 240 239 232 226 215 212 230 232 230 229 223 223 221 218 214 209 203 199 200 201 200 187 201 214 205 203 208 207 220 237 245 245 245 254 268 281 291 296
262 263 263 263 264 264 264 265 265 266 266 267 267 267 268 268 268 268 268 267 267 267 266 266 266 266 267 267 268 268 268 268 269 269 269 270 271 272 272 273 273 272 270 267 263 260 257 253 248 242 238 235 229 224 215 214 226 230 232 225 214 215 212 206 202 198 195 197 201 206 206 195 209 218 199 197 204 212 234 245 251 254 253 265 280 292 299 291
262 262 262 262 263 263 263 264 264 265 265 266 266 267 267 268 268 268 268 268 267 267 266 266 265 265 265 266 266 267 267 267 268 268 268 268 269 270 270 271 270 269 268 264 261 258 256 252 248 243 238 233 227 223 216 215 221 224 226 213 203 206 197 187 187 190 193 201 207 211 215 205 213 221 197 186 187 208 237 245 251 259 261 274 285 295 297 285
261 260 261 261 261 261 262 263 263 264 264 265 266 266 267 268 268 268 268 268 267 267 266 265 265 264 265 265 265 266 266 266 267 267 267 267 267 268 268 269 268 267 266 262 259 256 255 253 249 244 238 232 226 223 218 212 213 218 220 207 201 202 188 175 179 191 195 200 210 215 214 212 217 223 207 193 191 206 229 236 246 255 259 272 283 281 273 275
260 259 259 259 260 260 261 261 262 263 263 264 264 265 266 266 267 267 268 267 267 267 266 266 265 264 264 265 265 265 265 265 265 266 266 266 265 266 267 267 266 265 263 260 257 255 255 252 249 245 239 233 226 223 219 209 207 214 217 209 204 198 183 175 178 193 196 197 211 218 214 213 216 220 215 209 207 215 226 236 246 250 254 262 256 248 251 260
259 258 258 257 258 259 259 260 260 261 262 263 263 264 265 265 266 266 267 267 267 267 266 266 265 264 264 265 265 265 265 265 265 265 265 264 264 264 265 265 265 263 262 259 255 253 254 251 248 246 240 232 225 223 218 206 206 214 216 212 206 196 185 184 185 188 194 200 210 219 219 212 215 221 223 223 227 233 236 241 245 247 252 249 240 245 249 256
258 257 257 256 256 257 258 258 259 260 261 262 263 263 264 264 265 265 265 266 266 266 266 266 265 264 264 265 265 265 265 264 264 264 263 263 263 263 263 263 263 262 260 257 253 251 252 251 248 246 242 233 224 221 215 205 206 211 215 213 205 198 193 194 193 187 194 204 210 219 224 216 217 224 227 228 235 240 242 246 247 247 246 239 243 253 257 264
258 257 256 256 255 255 256 257 258 259 260 261 262 263 263 264 264 265 265 265 265 265 265 265 265 264 264 264 264 265 264 264 264 264 263 262 261 261 261 261 261 260 258 255 251 248 249 249 248 246 243 235 226 222 215 207 207 207 210 210 204 204 204 201 198 193 197 205 213 224 229 224 222 225 227 227 228 230 236 244 244 241 240 240 247 255 262 269
259 258 257 256 256 255 255 257 258 258 259 260 261 262 262 263 264 264 265 265 265 265 264 264 264 264 264 264 264 264 264 264 264 263 262 261 260 259 259 260 260 259 257 254 249 246 246 246 246 244 243 237 228 224 219 213 210 206 207 208 208 211 212 207 203 200 199 197 201 210 225 232 228 223 225 229 229 226 227 234 240 244 247 249 254 258 263 269
260 259 258 257 257 256 256 256 257 258 259 259 260 260 261 262 263 263 264 264 265 265 264 264 264 263 263 263 264 265 265 264 264 263 261 260 259 257 258 258 259 258 256 252 247 244 243 243 243 241 241 236 229 225 222 218 212 209 208 209 212 216 217 213 207 205 202 199 191 191 212 230 231 229 227 226 226 227 230 237 246 253 259 260 262 265 269 276
260 260 259 259 258 258 257 257 257 257 257 258 258 259 260 261 261 262 263 263 263 264 264 263 264 263 263 263 264 264 264 264 263 262 261 259 258 256 256 257 257 257 254 250 245 240 239 240 240 239 238 234 229 225 221 218 213 210 211 212 214 216 217 214 211 209 208 210 201 195 207 215 223 235 236 228 227 235 242 245 250 255 260 264 266 272 278 283
260 260 259 259 259 258 258 258 257 257 257 257 258 258 259 259 260 261 261 261 262 262 262 262 262 262 262 263 263 263 264 264 262 261 260 258 256 254 254 255 255 255 253 249 243 238 236 237 237 236 235 233 229 225 221 217 211 210 214 215 213 214 214 213 214 213 212 217 216 208 208 210 218 234 241 238 237 244 250 250 253 257 261 264 269 276 281 286
260 260 259 259 259 258 258 258 258 257 257 257 257 257 258 258 259 259 260 260 260 260 261 261 261 261 261 261 262 262 262 263 261 260 259 256 253 251 251 253 253 253 252 248 241 236 233 233 234 233 232 232 228 225 221 217 211 210 214 215 212 210 210 211 214 216 215 217 222 220 217 217 224 235 244 245 244 247 252 254 256 260 264 268 273 277 281 285
260 260 259 259 259 258 258 258 258 257 257 257 257 257 257 257 257 258 258 259 259 259 259 259 259 259 259 259 260 261 261 261 261 260 258 254 251 249 248 249 249 250 250 246 239 234 233 231 231 230 230 230 228 224 220 216 211 209 212 213 212 210 209 209 211 214 216 214 218 224 226 228 228 231 239 244 247 249 251 254 258 262 267 272 275 277 281 281
259 259 259 259 258 258 257 257 257 257 256 256 256 255 256 256 256 256 257 257 258 258 257 257 257 258 258 257 258 258 258 259 260 260 257 253 249 246 243 243 245 247 247 244 237 233 232 231 230 229 228 229 228 225 221 215 210 208 209 209 211 212 211 210 207 209 213 212 212 219 230 235 231 230 234 237 243 250 253 259 266 270 274 276 278 279 280 277
258 258 258 258 258 257 257 256 255 255 255 255 254 254 255 255 255 254 254 255 255 255 255 255 255 255 255 254 255 256 256 257 258 257 256 253 247 241 239 239 241 244 245 243 237 232 231 230 229 228 227 227 227 225 222 216 210 208 208 207 207 210 212 210 206 205 210 213 212 213 223 234 236 235 235 233 238 248 259 269 274 277 279 277 273 271 272 276
258 257 257 257 257 256 256 255 254 254 253 253 253 253 254 254 253 253 252 252 252 252 253 253 254 254 254 253 252 254 255 255 254 254 254 251 245 239 237 237 239 241 243 242 237 230 228 228 228 227 226 225 225 224 222 218 212 209 208 207 204 208 214 211 205 201 205 212 215 216 220 228 233 235 235 234 236 243 252 260 263 264 264 262 262 266 273 281
258 257 256 255 255 255 255 254 254 253 253 252 252 252 253 252 252 252 251 250 251 252 253 253 253 253 253 252 252 253 254 252 251 251 251 250 246 240 235 235 237 238 240 240 238 231 226 225 224 225 226 225 223 223 222 218 214 210 208 207 204 207 214 215 209 202 200 206 213 218 222 224 225 228 231 234 239 245 249 250 252 254 256 259 265 271 277 281
259 258 257 256 255 254 254 254 253 253 252 252 251 251 251 251 251 250 250 250 251 253 253 254 254 254 255 254 254 253 252 251 249 249 249 249 246 238 232 232 234 235 236 238 238 232 225 222 221 222 224 225 224 224 223 220 216 212 210 209 207 206 212 217 217 211 205 207 211 216 220 222 225 228 233 240 248 255 259 260 260 262 263 265 266 266 267 268
258 259 259 257 256 255 254 254 253 253 252 251 251 250 250 249 249 249 250 251 252 253 254 255 255 255 255 255 255 254 253 252 249 247 248 247 244 237 230 229 231 231 232 235 238 233 224 220 220 221 223 225 225 224 223 222 219 215 212 211 209 208 211 216 221 221 216 214 217 220 224 226 229 233 239 245 252 257 260 263 266 269 270 268 265 264 265 266
254 257 258 257 257 256 256 255 254 253 252 251 250 249 249 249 249 250 251 252 253 254 255 255 255 255 255 256 255 255 254 252 250 248 248 247 244 238 231 228 229 230 230 232 236 233 224 220 221 220 222 224 226 225 223 222 220 217 214 213 212 211 212 216 221 225 226 226 227 231 234 238 239 242 244 246 250 254 256 255 255 259 264 265 264 266 268 268
251 253 256 256 256 257 257 257 255 252 250 249 248 248 248 249 250 251 253 253 254 254 254 253 254 254 255 255 254 254 252 250 249 248 248 247 243 238 233 230 227 227 228 231 235 233 225 222 223 221 221 222 225 224 223 222 221 219 216 215 215 215 215 218 221 225 229 232 236 239 243 246 249 250 251 250 250 251 251 250 244 243 249 257 261 265 267 268
251 251 253 254 255 256 257 255 252 249 246 246 246 246 247 248 250 250 250 249 248 248 249 249 251 251 252 254 254 253 251 248 247 246 245 245 242 237 234 229 224 223 226 229 233 233 228 224 223 222 221 221 223 225 223 222 221 220 219 217 217 217 218 220 223 225 228 231 236 242 247 250 252 255 256 256 255 253 250 248 245 243 245 251 257 264 269 270
254 251 251 253 254 254 254 251 248 245 243 243 243 243 243 244 244 243 241 240 239 242 245 246 249 251 253 256 253 251 250 248 245 243 243 242 240 236 233 228 223 221 224 228 231 232 230 227 222 223 223 221 222 225 226 225 222 219 221 221 220 220 221 222 224 227 230 232 235 240 247 251 253 255 257 259 259 257 254 251 251 252 253 255 260 265 267 268
261 255 253 253 253 253 251 248 246 244 243 242 241 241 240 238 237 236 236 237 237 242 246 248 250 252 254 254 253 254 253 250 247 244 243 241 238 235 233 229 223 220 221 225 230 230 230 229 222 220 223 222 221 223 226 229 225 220 221 223 223 222 224 226 228 231 233 236 238 240 245 249 251 252 254 258 259 258 257 256 257 259 260 260 260 262 263 266
270 262 257 254 253 252 250 248 247 246 244 243 241 240 237 236 236 238 240 241 240 244 250 251 252 253 254 256 258 258 257 255 252 248 244 241 237 234 232 230 224 219 218 223 228 227 228 229 222 218 223 223 222 221 223 230 230 224 220 222 225 225 226 228 231 234 237 239 241 243 245 247 249 249 250 253 256 258 258 258 258 258 259 258 258 259 264 270
281 269 262 258 255 252 250 249 249 248 245 243 241 240 240 239 241 243 245 246 245 248 253 257 257 258 259 262 264 263 262 260 254 249 247 244 240 236 233 231 225 219 218 222 227 226 228 230 224 219 223 224 223 222 222 228 233 231 224 221 224 226 227 228 230 234 237 240 242 243 245 246 248 249 249 249 251 254 257 258 257 257 258 259 262 266 270 273
298 281 269 262 258 255 252 250 249 248 246 244 243 243 244 244 246 247 249 251 252 254 258 262 264 265 264 265 267 267 266 260 252 250 249 247 243 237 233 229 224 219 219 223 226 226 228 231 227 222 223 224 224 222 222 225 230 234 231 225 225 227 228 229 230 233 235 237 239 240 242 244 245 247 248 248 249 250 253 256 258 259 259 261 264 268 270 272
305 294 279 269 263 259 255 251 249 248 248 247 246 246 246 247 248 250 252 255 257 259 262 265 267 268 267 267 268 269 266 261 255 251 248 245 242 238 233 228 223 221 221 223 224 225 227 230 228 224 222 223 223 222 222 222 224 230 232 229 228 229 230 231 231 232 234 235 236 236 236 238 242 245 248 249 250 251 252 255 257 259 260 262 263 265 268 270
299 297 290 279 270 263 259 255 252 250 249 248 247 248 248 249 251 253 255 258 259 261 263 266 268 267 265 266 266 265 263 260 255 249 244 242 240 238 234 228 225 223 222 222 222 223 224 227 228 224 220 220 222 222 223 224 225 228 230 229 229 229 230 231 231 232 233 234 235 236 235 237 239 242 246 247 248 250 251 253 256 258 260 261 262 263 265 268
291 291 291 288 278 268 262 259 258 255 252 250 249 249 250 251 253 255 257 259 260 261 263 264 263 261 260 260 260 258 255 253 252 248 243 240 237 235 232 227 224 223 222 221 219 219 221 223 226 224 220 221 221 221 223 225 227 229 229 228 228 228 228 229 229 230 232 233 235 236 237 238 237 238 242 246 249 250 249 250 252 255 258 259 260 261 263 266
282 284 286 286 282 275 268 263 260 257 255 254 253 252 252 253 254 255 257 258 259 260 261 259 256 255 256 258 258 255 249 244 244 244 242 240 239 236 233 229 225 224 224 221 218 219 221 223 225 223 220 221 221 221 222 224 226 227 228 226 225 227 228 227 227 228 230 233 235 236 237 238 239 241 244 247 250 251 250 249 250 252 255 256 257 259 262 265
275 276 278 279 280 278 273 268 263 260 258 257 256 255 254 253 253 254 255 256 257 257 256 255 254 255 259 261 260 256 247 239 236 238 237 237 238 237 235 231 226 225 225 221 219 221 223 225 226 223 221 221 220 220 222 225 227 227 228 228 225 226 229 228 226 228 231 234 236 237 239 241 244 246 247 247 248 248 247 247 248 250 253 255 257 259 262 263
268 269 271 273 274 274 273 272 269 265 262 260 259 257 255 253 251 251 252 254 255 255 254 254 255 259 262 264 262 257 249 238 232 231 231 233 235 235 234 232 228 225 222 220 218 220 222 224 225 223 222 222 221 221 222 224 227 227 227 227 226 228 232 232 229 228 230 234 237 240 242 243 245 247 248 249 250 249 247 245 245 248 251 254 257 260 261 262
262 263 264 266 267 268 270 272 273 270 268 265 261 258 254 251 250 251 252 253 253 253 252 254 256 259 262 262 259 255 249 239 231 227 226 229 233 234 234 233 231 227 222 220 219 218 220 222 222 221 222 222 221 221 222 223 225 225 225 225 226 230 234 235 233 231 230 233 236 240 242 243 244 246 248 249 250 250 250 248 247 248 251 254 258 261 263 265
258 258 259 260 262 264 267 269 272 273 274 272 264 258 254 252 250 250 250 249 249 249 250 252 254 257 259 258 253 249 243 236 230 225 225 227 230 231 231 231 230 227 224 222 220 219 221 221 220 220 221 222 221 220 221 223 224 224 224 225 228 232 235 235 234 233 233 234 235 237 240 242 244 245 247 249 251 251 251 250 249 250 252 255 257 261 264 267
256 255 255 256 258 260 263 265 268 271 275 274 265 258 255 251 247 246 245 245 246 248 249 251 253 255 256 255 249 240 231 226 225 226 227 228 228 228 228 229 229 227 224 222 221 222 223 222 220 220 221 222 222 222 222 223 224 224 225 226 227 230 234 234 234 236 237 238 238 238 239 241 243 245 248 250 251 251 251 250 250 251 252 255 257 261 264 267
254 252 252 252 254 256 258 261 263 266 269 268 262 259 254 247 243 243 243 244 245 247 250 252 254 257 258 257 248 237 227 221 221 225 228 229 229 228 227 227 229 229 227 224 223 223 222 221 221 221 221 221 223 223 223 224 224 224 226 227 226 227 231 233 234 237 240 241 242 240 240 241 243 244 246 247 249 250 251 251 251 251 252 255 257 260 263 267
251 250 249 249 250 252 254 256 258 260 262 262 259 257 250 244 242 242 243 244 246 248 250 253 256 259 262 260 250 239 231 224 222 223 227 230 230 229 228 227 228 229 228 227 226 225 223 221 221 221 220 220 222 223 223 224 225 225 226 227 226 226 227 228 230 234 236 239 240 240 240 241 243 244 244 245 247 250 251 252 253 254 256 257 259 262 265 268
247 248 248 247 247 248 250 252 253 255 254 253 253 252 248 244 244 244 244 245 247 250 251 253 255 258 263 265 255 241 233 229 226 224 226 229 230 230 229 227 227 227 227 228 229 228 226 225 223 221 219 220 221 222 223 224 225 226 226 227 227 227 227 226 228 231 234 237 238 239 240 243 244 244 244 244 246 249 251 254 256 258 259 260 262 265 268 271
243 244 245 245 245 245 246 247 248 249 248 248 249 252 253 252 249 247 246 245 246 249 250 251 252 255 261 267 262 249 237 230 228 228 229 230 231 232 231 229 227 227 226 228 228 227 226 226 224 221 220 221 221 222 223 224 226 227 227 228 229 229 230 229 228 229 232 236 239 241 243 244 245 245 244 244 247 250 252 256 259 260 261 262 265 267 270 272
240 240 241 242 242 243 243 244 245 245 246 247 249 251 254 252 247 246 245 242 243 246 250 252 252 254 259 265 269 263 249 237 230 229 231 233 234 235 235 234 231 229 228 228 229 229 228 228 226 223 222 222 222 223 223 224 226 227 228 228 229 230 230 230 231 231 233 236 239 241 244 245 246 246 246 247 250 254 255 258 261 262 261 262 264 266 268 269
239 238 239 239 240 241 241 242 244 245 246 247 247 248 249 247 244 244 244 242 242 246 251 254 253 253 255 260 266 269 261 247 235 230 232 234 236 236 237 236 235 232 230 228 227 227 228 229 228 225 225 224 224 224 224 223 224 226 227 226 227 228 228 228 231 234 236 237 238 239 242 245 246 246 246 248 252 256 258 260 263 263 262 262 262 263 264 266
240 238 237 238 238 239 240 241 242 243 244 245 245 245 245 244 244 244 243 240 239 241 245 249 250 251 253 255 260 269 270 257 242 233 232 233 235 236 236 236 235 234 232 229 226 224 224 227 227 226 226 227 226 225 224 224 224 224 225 225 225 227 227 227 229 231 233 235 235 236 240 244 245 245 246 248 252 255 258 260 262 263 265 265 264 264 265 265
242 239 237 237 237 237 238 239 240 241 241 241 242 241 240 240 241 241 239 237 236 237 241 246 248 251 255 256 261 270 271 261 249 241 237 234 233 234 235 235 235 235 234 231 228 224 223 225 226 226 226 227 226 225 224 224 224 225 226 226 226 228 229 229 229 228 228 230 232 235 238 241 244 247 249 250 252 255 256 257 260 264 267 268 268 267 268 268
244 241 238 236 236 236 237 238 239 240 240 239 240 240 239 239 240 241 240 237 237 240 243 246 248 251 256 259 264 269 264 251 245 243 241 238 235 233 234 235 235 234 234 232 229 225 222 221 222 223 225 227 227 225 224 224 224 226 227 229 229 230 231 232 231 230 228 228 229 232 236 239 244 247 249 249 251 253 255 257 260 263 266 267 268 270 271 272
246 243 240 237 236 236 235 236 237 239 239 239 239 239 239 239 240 241 241 240 242 246 248 249 248 249 253 259 266 269 261 244 236 239 240 238 236 233 232 234 234 233 232 232 230 227 224 221 219 219 222 225 227 226 226 225 224 225 227 229 230 230 231 233 235 235 233 230 230 231 233 236 240 243 245 246 248 250 253 256 259 262 265 267 270 272 274 274
248 244 242 239 237 236 235 235 236 238 238 238 239 239 239 239 240 240 242 243 245 249 251 250 249 248 250 256 263 268 260 242 231 232 236 236 234 232 231 233 234 233 231 230 228 226 225 223 221 219 220 223 225 225 226 227 227 226 227 229 229 229 230 232 234 235 234 231 231 232 232 233 236 239 242 244 245 247 250 254 257 260 264 268 271 272 271 272
255 246 242 240 238 237 235 235 235 237 238 238 238 239 239 239 239 240 241 244 246 248 251 252 250 247 247 252 258 264 259 241 227 224 229 232 232 231 231 232 233 233 232 229 225 223 225 224 223 222 221 222 223 223 225 226 227 227 227 229 229 229 229 230 232 234 234 231 230 231 231 233 235 237 239 242 243 245 247 251 256 260 264 268 271 271 269 268
267 252 244 242 240 238 236 235 234 235 237 237 237 238 239 239 239 239 240 243 246 248 251 252 250 247 247 250 256 263 259 243 227 219 220 225 227 228 229 230 231 231 232 230 225 222 223 224 224 223 224 224 224 223 223 224 226 226 226 227 229 230 230 229 232 235 236 235 233 230 229 232 234 235 237 239 242 244 246 250 254 260 264 268 270 270 268 266
277 265 251 244 241 240 237 236 234 234 236 237 237 238 238 239 238 238 239 242 245 248 250 251 249 247 248 249 255 263 259 244 229 219 216 219 222 223 227 228 228 230 231 231 229 224 222 223 223 223 225 225 224 224 224 224 225 226 225 226 227 229 230 230 231 234 236 237 237 233 230 231 232 234 234 236 239 242 245 248 252 256 262 265 266 266 265 264
Height
10914 10915 10915 10915 10916 10916 10917 10917 10918 10919 10920 10920 10920 10921 10921 10922 10923 10924 10925 10926 10927 10928 10929 10929 10930 10930 10929 10930 10931 10933 10934 10934 10936 10937 10938 10939 10939 10939 10940 10940 10941 10942 10943 10944 10944 10945 10946 10947 10948 10949 10951 10952 10953 10955 10957 10957 10956 10956 10956 10956 10957 10958 10959 10961 10962 10964 10965 10968 10969 10970 10971 10973 10975 10975 10975 10975 10976 10976 10977 10977 10978 10979 10980 10980 10980 10980 10980 10980
10910 10910 10911 10911 10912 10912 10913 10913 10914 10915 10915 10916 10916 10917 10917 10918 10919 10920 10921 10922 10923 10924 10925 10926 10926 10926 10925 10926 10927 10929 10930 10931 10933 10934 10935 10936 10936 10937 10937 10938 10939 10940 10940 10941 10942 10943 10944 10945 10945 10947 10948 10949 10951 10953 10954 10955 10955 10954 10954 10955 10956 10957 10958 10960 10962 10963 10965 10967 10968 10969 10971 10972 10973 10974 10975 10975 10975 10976 10976 10977 10978 10979 10979 10980 10980 10980 10980 10980
10905 10905 10906 10907 10907 10908 10908 10909 10910 10911 10911 10912 10912 10913 10913 10914 10914 10916 10917 10918 10919 10920 10921 10922 10922 10922 10921 10922 10924 10925 10926 10927 10929 10931 10932 10933 10933 10934 10934 10935 10936 10937 10938 10939 10940 10941 10941 10942 10943 10944 10945 10947 10948 10950 10951 10952 10953 10953 10954 10955 10955 10956 10957 10959 10961 10962 10964 10966 10967 10969 10970 10971 10971 10972 10973 10974 10975 10975 10976 10976 10977 10977 10978 10979 10979 10979 10979 10980
10899 10900 10901 10902 10903 10903 10904 10905 10906 10906 10907 10908 10908 10909 10909 10909 10911 10912 10913 10914 10914 10916 10917 10918 10919 10918 10917 10919 10920 10921 10922 10924 10925 10927 10929 10930 10931 10931 10932 10932 10933 10935 10935 10937 10938 10939 10939 10939 10940 10941 10943 10944 10946 10947 10949 10950 10950 10952 10953 10954 10954 10955 10956 10958 10960 10962 10964 10966 10967 10968 10969 10970 10969 10970 10971 10973 10975 10976 10976 10976 10976 10976 10977 10978 10978 10979 10979 10980
10894 10895 10896 10897 10898 10899 10900 10900 10901 10902 10903 10904 10904 10904 10905 10905 10906 10908 10909 10909 10910 10911 10912 10913 10915 10915 10914 10915 10916 10916 10918 10920 10921 10923 10925 10927 10928 10928 10929 10930 10931 10932 10933 10934 10936 10936 10937 10937 10938 10939 10940 10942 10944 10945 10946 10948 10949 10950 10952 10953 10954 10954 10956 10958 10960 10961 10963 10965 10967 10967 10968 10968 10968 10968 10970 10972 10974 10975 10976 10976 10974 10975 10976 10977 10978 10979 10979 10979
10888 10890 10891 10892 10893 10894 10895 10896 10897 10898 10899 10899 10900 10900 10901 10901 10902 10903 10904 10905 10906 10907 10908 10909 10911 10911 10910 10911 10912 10913 10914 10916 10917 10919 10921 10923 10925 10925 10926 10927 10928 10929 10930 10931 10933 10934 10935 10935 10936 10937 10938 10940 10942 10943 10944 10946 10947 10949 10950 10951 10952 10954 10955 10957 10959 10960 10962 10964 10965 10966 10966 10966 10967 10968 10969 10971 10973 10974 10974 10974 10973 10975 10976 10977 10978 10978 10978 10978
10883 10884 10885 10886 10888 10889 10890 10891 10892 10893 10894 10895 10895 10896 10896 10897 10898 10899 10900 10901 10901 10903 10904 10905 10907 10907 10906 10907 10908 10909 10910 10911 10912 10915 10917 10919 10921 10923 10923 10924 10926 10927 10927 10928 10930 10932 10932 10933 10934 10935 10936 10938 10940 10941 10942 10944 10946 10947 10949 10950 10952 10953 10955 10956 10957 10959 10961 10963 10963 10964 10964 10965 10965 10967 10968 10969 10971 10972 10973 10972 10973 10974 10975 10976 10977 10977 10976 10976
10877 10878 10879 10881 10882 10883 10884 10886 10887 10888 10889 10890 10891 10891 10892 10893 10893 10895 10896 10896 10897 10898 10900 10901 10902 10903 10902 10903 10904 10905 10906 10907 10908 10911 10913 10915 10918 10920 10921 10921 10923 10924 10924 10925 10928 10929 10930 10930 10932 10933 10934 10936 10938 10938 10940 10942 10944 10946 10947 10949 10951 10953 10954 10955 10957 10959 10960 10961 10961 10962 10963 10963 10964 10965 10967 10968 10970 10971 10971 10971 10972 10973 10974 10975 10975 10974 10974 10974
10871 10872 10873 10875 10876 10878 10879 10880 10882 10883 10884 10885 10886 10887 10887 10888 10889 10890 10891 10892 10892 10894 10895 10896 10897 10899 10899 10899 10900 10900 10901 10902 10904 10906 10908 10911 10914 10916 10918 10918 10919 10921 10921 10923 10925 10927 10927 10928 10930 10931 10932 10933 10935 10936 10938 10940 10942 10944 10945 10947 10949 10951 10953 10954 10955 10957 10958 10960 10961 10961 10961 10961 10962 10964 10965 10966 10968 10969 10970 10971 10971 10972 10973 10973 10973 10973 10973 10974
10865 10866 10868 10869 10871 10872 10874 10875 10876 10878 10879 10880 10881 10882 10882 10883 10884 10885 10887 10887 10888 10889 10890 10891 10893 10894 10895 10895 10895 10896 10897 10897 10899 10901 10904 10907 10910 10913 10914 10915 10916 10917 10918 10920 10922 10924 10925 10926 10927 10929 10929 10931 10932 10933 10935 10937 10939 10941 10943 10945 10947 10949 10951 10952 10954 10956 10957 10959 10960 10960 10959 10959 10960 10962 10964 10965 10967 10968 10970 10970 10970 10970 10971 10972 10972 10972 10973 10973
10859 10860 10862 10863 10865 10867 10868 10870 10871 10872 10874 10875 10876 10877 10877 10879 10880 10881 10882 10882 10883 10884 10885 10887 10888 10889 10891 10891 10892 10892 10892 10892 10894 10896 10900 10903 10907 10910 10911 10912 10912 10913 10915 10917 10918 10921 10922 10923 10925 10926 10927 10929 10930 10931 10932 10934 10936 10939 10941 10942 10944 10946 10949 10951 10953 10954 10956 10958 10959 10959 10959 10958 10958 10960 10962 10963 10965 10966 10968 10969 10969 10969 10970 10971 10971 10971 10972 10973
10853 10854 10856 10857 10859 10861 10862 10864 10865 10867 10868 10870 10871 10872 10872 10873 10875 10876 10877 10878 10878 10879 10880 10882 10883 10885 10886 10887 10888 10888 10887 10887 10889 10891 10895 10899 10903 10906 10907 10908 10909 10910 10911 10913 10915 10917 10919 10920 10922 10924 10925 10926 10927 10928 10929 10931 10934 10937 10939 10940 10942 10944 10947 10949 10951 10953 10955 10956 10957 10958 10958 10958 10957 10958 10960 10962 10963 10965 10966 10967 10968 10968 10968 10969 10969 10970 10971 10972
10848 10849 10850 10852 10853 10855 10856 10858 10859 10861 10863 10865 10867 10867 10867 10868 10870 10871 10872 10873 10873 10874 10875 10876 10878 10880 10881 10883 10884 10883 10882 10882 10883 10886 10891 10896 10900 10902 10904 10904 10905 10906 10907 10909 10911 10914 10916 10917 10919 10921 10923 10924 10925 10926 10928 10930 10932 10935 10937 10938 10940 10942 10944 10947 10949 10951 10953 10954 10955 10956 10957 10957 10957 10957 10958 10960 10961 10963 10964 10965 10967 10967 10967 10967 10968 10969 10970 10970
10842 10843 10845 10846 10848 10849 10851 10852 10853 10855 10857 10859 10862 10863 10862 10863 10866 10866 10867 10868 10868 10869 10870 10871 10873 10874 10876 10879 10879 10878 10878 10877 10878 10883 10888 10893 10896 10898 10900 10901 10901 10902 10903 10905 10907 10910 10912 10914 10916 10918 10921 10921 10922 10924 10927 10929 10931 10933 10935 10937 10938 10940 10942 10944 10947 10949 10951 10952 10953 10955 10956 10956 10956 10956 10956 10958 10959 10961 10962 10964 10966 10966 10966 10966 10967 10968 10968 10969
10837 10838 10839 10841 10842 10843 10845 10846 10847 10849 10852 10854 10857 10857 10856 10858 10861 10861 10862 10863 10863 10864 10864 10866 10867 10869 10871 10875 10875 10873 10873 10873 10875 10880 10884 10888 10892 10894 10896 10896 10897 10898 10898 10900 10904 10907 10909 10911 10913 10916 10918 10918 10920 10922 10925 10927 10929 10931 10934 10935 10937 10938 10940 10942 10944 10946 10948 10950 10951 10953 10954 10955 10955 10955 10955 10956 10957 10959 10961 10963 10965 10965 10965 10966 10966 10966 10967 10967
10831 10833 10834 10835 10836 10838 10839 10840 10842 10844 10847 10850 10852 10851 10851 10854 10856 10856 10857 10857 10857 10858 10858 10860 10862 10863 10866 10870 10870 10868 10868 10870 10874 10876 10878 10883 10888 10889 10890 10892 10894 10894 10893 10895 10900 10904 10906 10908 10910 10912 10915 10915 10917 10920 10922 10924 10927 10929 10931 10934 10935 10937 10939 10940 10942 10943 10945 10947 10949 10951 10953 10954 10954 10955 10955 10956 10957 10958 10960 10961 10962 10963 10964 10964 10965 10964 10965 10965
10826 10827 10828 10830 10831 10832 10833 10835 10837 10839 10842 10845 10846 10845 10847 10849 10850 10850 10851 10851 10851 10851 10852 10854 10856 10858 10861 10864 10864 10862 10864 10869 10871 10871 10874 10879 10882 10883 10885 10889 10891 10890 10889 10892 10897 10901 10902 10905 10907 10909 10911 10913 10915 10917 10919 10922 10925 10927 10929 10931 10934 10936 10938 10939 10940 10941 10943 10945 10947 10949 10951 10953 10953 10954 10955 10956 10957 10958 10959 10959 10960 10961 10962 10963 10963 10963 10963 10963
10820 10821 10823 10824 10825 10826 10828 10829 10831 10834 10838 10840 10840 10840 10842 10843 10844 10844 10845 10844 10845 10845 10847 10849 10852 10854 10856 10858 10859 10859 10863 10866 10867 10868 10870 10873 10875 10878 10883 10886 10887 10886 10886 10889 10893 10897 10899 10901 10904 10906 10908 10910 10912 10913 10916 10919 10922 10925 10927 10929 10932 10934 10936 10937 10938 10940 10942 10944 10946 10948 10949 10951 10952 10953 10954 10956 10957 10958 10958 10959 10959 10960 10961 10961 10961 10961 10962 10962
10814 10816 10817 10818 10819 10821 10822 10823 10826 10829 10833 10834 10834 10835 10836 10836 10837 10837 10837 10837 10839 10841 10843 10846 10848 10850 10851 10853 10855 10857 10859 10861 10863 10865 10866 10867 10870 10875 10880 10881 10882 10882 10883 10885 10889 10893 10895 10897 10900 10903 10904 10907 10909 10910 10913 10916 10919 10922 10925 10927 10930 10932 10934 10936 10937 10938 10940 10942 10944 10946 10948 10949 10951 10952 10954 10955 10957 10957 10958 10958 10959 10960 10960 10960 10959 10960 10960 10961
10810 10811 10812 10813 10814 10815 10816 10818 10821 10824 10827 10827 10828 10829 10829 10829 10830 10829 10830 10831 10834 10837 10839 10841 10844 10846 10848 10850 10851 10853 10855 10857 10859 10861 10862 10864 10866 10870 10875 10876 10876 10877 10880 10883 10886 10887 10890 10894 10898 10900 10901 10904 10906 10908 10910 10914 10917 10920 10923 10925 10927 10930 10932 10934 10935 10937 10939 10941 10943 10944 10946 10948 10949 10951 10952 10954 10955 10956 10956 10957 10957 10958 10958 10958 10958 10958 10959 10960
10806 10806 10807 10808 10809 10810 10811 10813 10816 10818 10820 10821 10821 10822 10821 10822 10823 10822 10824 10828 10831 10833 10835 10837 10840 10842 10843 10845 10847 10849 10851 10853 10855 10857 10859 10860 10862 10865 10869 10870 10871 10873 10878 10881 10880 10881 10886 10891 10895 10897 10898 10901 10902 10905 10908 10911 10914 10917 10920 10923 10925 10927 10929 10931 10933 10935 10937 10939 10941 10942 10944 10946 10948 10949 10951 10952 10953 10954 10954 10955 10955 10955 10955 10956 10956 10957 10958 10959
10802 10803 10803 10804 10804 10805 10807 10808 10811 10813 10813 10814 10814 10814 10814 10815 10816 10817 10821 10824 10827 10829 10830 10832 10834 10836 10839 10840 10842 10844 10846 10848 10850 10853 10855 10856 10858 10860 10864 10866 10868 10872 10877 10877 10874 10876 10883 10889 10892 10894 10896 10898 10900 10903 10906 10908 10910 10913 10917 10920 10922 10925 10927 10929 10931 10933 10935 10937 10939 10940 10942 10944 10946 10947 10949 10950 10951 10952 10953 10953 10954 10954 10954 10954 10955 10956 10957 10958
10798 10799 10800 10800 10801 10802 10803 10805 10807 10808 10808 10808 10807 10808 10809 10810 10812 10814 10818 10820 10822 10823 10824 10827 10829 10832 10835 10835 10836 10838 10839 10842 10846 10849 10850 10851 10853 10857 10860 10863 10866 10872 10874 10872 10869 10873 10881 10886 10888 10890 10892 10894 10896 10899 10902 10904 10907 10910 10913 10916 10919 10922 10924 10926 10929 10931 10934 10935 10937 10938 10940 10942 10944 10945 10946 10947 10949 10950 10951 10951 10952 10953 10953 10953 10953 10954 10956 10957
10795 10795 10796 10797 10798 10799 10801 10802 10803 10803 10803 10803 10803 10804 10805 10807 10809 10812 10814 10815 10817 10818 10819 10822 10825 10829 10830 10830 10832 10832 10832 10836 10840 10843 10845 10845 10848 10852 10855 10858 10864 10869 10868 10867 10867 10871 10878 10882 10884 10886 10888 10891 10893 10895 10898 10900 10904 10907 10910 10912 10915 10918 10921 10923 10926 10929 10931 10933 10935 10936 10938 10940 10942 10943 10944 10945 10946 10947 10948 10949 10950 10950 10951 10951 10952 10953 10954 10955
10791 10792 10792 10793 10795 10796 10798 10799 10799 10799 10799 10799 10800 10801 10803 10805 10806 10808 10810 10811 10813 10814 10816 10819 10822 10826 10827 10826 10826 10825 10827 10831 10834 10836 10838 10839 10843 10848 10851 10856 10861 10863 10863 10864 10865 10869 10874 10876 10880 10883 10885 10888 10890 10892 10894 10896 10901 10904 10906 10909 10912 10916 10919 10921 10924 10926 10929 10931 10932 10934 10936 10938 10939 10941 10942 10943 10944 10945 10946 10946 10947 10948 10949 10950 10951 10952 10953 10953
10789 10789 10789 10791 10792 10793 10794 10796 10796 10796 10797 10797 10798 10799 10801 10803 10804 10805 10806 10808 10811 10812 10813 10816 10820 10823 10824 10821 10819 10821 10823 10826 10829 10832 10832 10833 10839 10844 10848 10852 10856 10858 10860 10862 10863 10866 10869 10870 10875 10880 10881 10884 10887 10890 10892 10892 10897 10901 10904 10907 10910 10914 10917 10920 10923 10925 10927 10929 10930 10932 10934 10936 10937 10938 10940 10940 10941 10942 10943 10944 10945 10946 10947 10948 10949 10950 10951 10952
10786 10786 10787 10787 10788 10789 10791 10792 10792 10793 10795 10795 10796 10797 10798 10800 10801 10802 10804 10806 10809 10809 10810 10813 10817 10819 10819 10816 10816 10818 10819 10821 10827 10827 10826 10829 10835 10840 10843 10846 10850 10854 10859 10860 10858 10861 10864 10865 10871 10877 10878 10881 10884 10887 10889 10889 10892 10898 10902 10905 10908 10912 10915 10917 10920 10922 10924 10926 10928 10930 10932 10933 10935 10936 10937 10938 10939 10940 10941 10942 10943 10944 10945 10946 10947 10949 10950 10951
10784 10784 10784 10784 10785 10786 10787 10788 10789 10791 10792 10792 10793 10794 10795 10797 10798 10800 10801 10803 10806 10807 10807 10810 10813 10815 10814 10813 10813 10814 10815 10819 10822 10819 10820 10827 10832 10836 10839 10840 10845 10852 10856 10855 10854 10858 10861 10861 10868 10875 10876 10878 10881 10885 10887 10888 10889 10894 10899 10904 10906 10909 10912 10914 10917 10919 10921 10923 10925 10927 10929 10931 10932 10933 10935 10936 10937 10938 10939 10940 10941 10942 10943 10944 10946 10947 10949 10950
10782 10781 10781 10781 10781 10782 10783 10785 10786 10787 10788 10789 10790 10791 10792 10794 10795 10797 10798 10800 10803 10804 10805 10807 10809 10810 10810 10809 10810 10810 10811 10814 10814 10814 10820 10825 10828 10830 10831 10834 10842 10849 10852 10851 10852 10857 10858 10858 10866 10872 10873 10874 10878 10882 10884 10886 10887 10890 10896 10902 10905 10907 10909 10912 10914 10916 10918 10920 10922 10924 10926 10928 10930 10931 10933 10934 10936 10937 10938 10938 10939 10940 10941 10942 10944 10945 10946 10947
10780 10779 10778 10778 10778 10779 10780 10781 10782 10783 10784 10786 10787 10788 10789 10790 10792 10793 10795 10797 10800 10802 10803 10804 10804 10805 10806 10805 10805 10806 10807 10808 10809 10812 10817 10819 10821 10823 10825 10831 10839 10844 10845 10846 10849 10853 10853 10856 10862 10865 10867 10871 10875 10878 10879 10881 10884 10885 10891 10898 10902 10904 10906 10908 10910 10913 10915 10918 10920 10922 10924 10926 10928 10930 10931 10932 10934 10935 10935 10936 10936 10937 10938 10940 10941 10943 10944 10945
10778 10777 10776 10775 10775 10776 10776 10777 10778 10779 10781 10782 10782 10784 10785 10787 10788 10790 10792 10794 10796 10798 10799 10799 10800 10800 10800 10799 10800 10801 10802 10803 10804 10807 10811 10813 10815 10817 10820 10826 10832 10835 10838 10840 10843 10845 10849 10853 10853 10856 10863 10868 10871 10874 10876 10878 10880 10882 10888 10894 10898 10900 10902 10904 10907 10910 10913 10915 10917 10919 10922 10924 10926 10928 10929 10930 10931 10932 10933 10933 10934 10935 10936 10938 10939 10940 10941 10942
10776 10775 10774 10773 10773 10773 10773 10773 10774 10775 10776 10777 10778 10780 10781 10783 10785 10787 10789 10791 10792 10793 10794 10794 10794 10794 10794 10794 10794 10795 10796 10798 10799 10802 10805 10807 10810 10811 10814 10819 10823 10827 10829 10831 10835 10840 10843 10845 10846 10853 10861 10864 10867 10871 10872 10874 10877 10880 10885 10889 10893 10895 10897 10901 10905 10908 10910 10913 10915 10917 10920 10922 10923 10924 10925 10927 10929 10929 10930 10930 10932 10933 10934 10936 10937 10938 10939 10940
10773 10772 10771 10771 10770 10770 10769 10769 10771 10772 10772 10773 10774 10775 10777 10779 10782 10783 10785 10785 10786 10788 10788 10788 10788 10788 10788 10788 10789 10790 10791 10793 10794 10797 10800 10803 10805 10807 10810 10814 10818 10822 10822 10826 10834 10838 10839 10840 10843 10851 10857 10859 10863 10866 10868 10870 10873 10877 10881 10885 10888 10889 10892 10897 10902 10906 10908 10911 10913 10915 10917 10919 10920 10922 10924 10925 10926 10927 10928 10928 10929 10931 10932 10934 10934 10935 10936 10937
10769 10769 10768 10768 10768 10767 10766 10767 10767 10768 10768 10769 10770 10772 10774 10775 10777 10778 10779 10780 10781 10782 10782 10782 10783 10784 10784 10784 10784 10785 10786 10788 10789 10791 10795 10798 10800 10803 10806 10809 10813 10815 10818 10825 10833 10834 10835 10838 10840 10845 10850 10854 10858 10862 10865 10867 10870 10875 10879 10882 10885 10884 10886 10893 10899 10903 10906 10908 10910 10912 10914 10917 10919 10921 10922 10923 10923 10924 10925 10926 10927 10928 10930 10931 10932 10933 10934 10934
10765 10765 10765 10765 10764 10764 10763 10764 10764 10765 10765 10766 10767 10769 10770 10771 10772 10772 10773 10775 10776 10776 10777 10778 10779 10780 10781 10781 10780 10781 10782 10784 10785 10787 10790 10793 10795 10798 10801 10804 10807 10810 10815 10822 10826 10828 10831 10831 10832 10839 10846 10850 10855 10859 10863 10865 10868 10873 10877 10879 10880 10879 10882 10890 10896 10901 10903 10905 10907 10909 10912 10914 10916 10918 10919 10920 10920 10921 10922 10923 10925 10926 10927 10929 10930 10930 10931 10931
10760 10761 10761 10761 10760 10760 10760 10761 10761 10762 10762 10763 10764 10765 10765 10766 10767 10768 10770 10771 10771 10772 10773 10775 10776 10777 10777 10777 10776 10777 10779 10780 10781 10783 10786 10789 10791 10794 10797 10800 10802 10806 10811 10815 10817 10821 10821 10821 10826 10836 10841 10844 10849 10855 10858 10861 10864 10869 10872 10873 10874 10875 10880 10887 10893 10897 10899 10902 10904 10907 10909 10911 10913 10914 10915 10916 10917 10918 10919 10921 10923 10924 10925 10926 10926 10927 10927 10927
10755 10756 10756 10756 10756 10756 10757 10757 10758 10759 10759 10760 10761 10761 10761 10762 10763 10765 10766 10767 10767 10768 10769 10771 10772 10773 10773 10772 10772 10773 10775 10777 10778 10780 10782 10785 10787 10790 10793 10795 10798 10802 10805 10807 10811 10814 10813 10816 10826 10833 10835 10838 10845 10851 10854 10857 10861 10864 10865 10868 10871 10874 10878 10884 10889 10892 10895 10898 10901 10903 10905 10907 10908 10909 10911 10913 10914 10915 10916 10918 10920 10921 10921 10922 10923 10923 10924 10924
10749 10751 10751 10752 10752 10752 10753 10754 10755 10756 10756 10757 10757 10757 10758 10759 10760 10761 10762 10762 10763 10764 10766 10767 10768 10768 10768 10768 10768 10769 10771 10773 10775 10776 10778 10781 10783 10786 10788 10791 10793 10796 10798 10801 10806 10808 10809 10817 10825 10828 10831 10837 10843 10848 10851 10853 10856 10858 10860 10865 10869 10871 10874 10880 10885 10888 10891 10894 10897 10900 10901 10902 10904 10906 10908 10910 10910 10911 10913 10915 10916 10917 10918 10919 10920 10920 10920 10921
10744 10745 10746 10747 10747 10748 10749 10750 10751 10752 10753 10754 10753 10753 10755 10756 10756 10756 10757 10758 10760 10761 10763 10764 10764 10764 10765 10765 10765 10765 10766 10768 10771 10773 10775 10777 10779 10782 10785 10787 10789 10791 10794 10799 10801 10802 10806 10813 10818 10822 10829 10836 10840 10843 10846 10849 10852 10855 10858 10862 10865 10867 10871 10877 10882 10884 10887 10890 10894 10897 10897 10898 10900 10904 10906 10907 10907 10908 10910 10912 10914 10914 10915 10916 10916 10917 10917 10918
10738 10740 10741 10742 10743 10743 10744 10745 10747 10748 10750 10750 10750 10750 10751 10752 10751 10752 10753 10755 10757 10758 10759 10760 10761 10761 10762 10762 10763 10763 10764 10766 10768 10770 10772 10773 10776 10779 10781 10784 10786 10788 10792 10796 10797 10799 10804 10809 10813 10818 10827 10832 10835 10837 10840 10843 10847 10851 10856 10859 10862 10864 10867 10873 10877 10880 10882 10885 10889 10892 10892 10894 10898 10900 10902 10904 10904 10905 10907 10909 10911 10911 10912 10913 10913 10913 10914 10915
10733 10734 10735 10737 10738 10739 10740 10741 10742 10744 10746 10746 10746 10746 10747 10747 10747 10749 10750 10752 10754 10755 10756 10756 10757 10757 10758 10759 10760 10761 10762 10764 10766 10768 10769 10770 10772 10774 10777 10780 10782 10785 10789 10792 10794 10798 10803 10806 10809 10815 10823 10827 10828 10831 10835 10839 10844 10849 10853 10857 10859 10861 10864 10868 10872 10874 10876 10880 10883 10887 10889 10892 10894 10896 10898 10900 10900 10902 10904 10905 10907 10908 10908 10908 10909 10910 10911 10912
10727 10728 10730 10731 10733 10734 10735 10736 10737 10739 10740 10742 10742 10743 10743 10744 10745 10746 10747 10749 10751 10750 10751 10752 10753 10754 10755 10756 10757 10758 10759 10761 10763 10765 10765 10766 10768 10770 10774 10777 10780 10784 10786 10788 10790 10794 10797 10799 10805 10813 10819 10820 10822 10827 10832 10838 10842 10847 10851 10853 10856 10859 10863 10866 10867 10868 10872 10875 10879 10883 10886 10888 10890 10892 10895 10896 10896 10898 10901 10901 10902 10903 10903 10904 10905 10906 10908 10909
10720 10722 10724 10726 10727 10729 10730 10731 10732 10734 10735 10738 10739 10740 10741 10742 10743 10743 10744 10746 10747 10746 10747 10748 10749 10751 10752 10753 10754 10755 10756 10758 10760 10761 10761 10763 10765 10769 10773 10776 10779 10782 10783 10785 10787 10790 10794 10798 10804 10810 10813 10815 10819 10824 10830 10836 10841 10844 10846 10849 10853 10857 10861 10862 10862 10865 10869 10873 10877 10879 10880 10882 10885 10888 10891 10892 10893 10896 10898 10898 10899 10899 10900 10901 10902 10904 10905 10906
10714 10716 10718 10720 10721 10723 10725 10726 10728 10729 10731 10734 10736 10737 10739 10739 10739 10739 10741 10742 10743 10743 10743 10743 10744 10746 10748 10749 10751 10752 10753 10755 10757 10757 10758 10759 10762 10766 10770 10773 10776 10778 10779 10781 10782 10786 10791 10795 10799 10805 10809 10813 10818 10822 10827 10832 10835 10837 10839 10844 10848 10851 10855 10858 10860 10865 10870 10873 10875 10876 10875 10878 10881 10884 10887 10889 10890 10892 10894 10895 10895 10896 10896 10898 10899 10901 10902 10903
10708 10710 10712 10714 10716 10718 10720 10722 10723 10725 10727 10730 10731 10733 10735 10735 10735 10735 10736 10738 10739 10739 10738 10738 10739 10741 10743 10745 10747 10748 10749 10751 10753 10753 10753 10755 10759 10762 10765 10769 10771 10773 10774 10775 10778 10782 10786 10789 10793 10800 10806 10810 10814 10818 10823 10825 10828 10831 10834 10838 10842 10844 10849 10853 10857 10864 10869 10870 10872 10873 10873 10875 10877 10880 10883 10886 10887 10889 10891 10891 10891 10892 10893 10894 10896 10898 10899 10900
10701 10703 10706 10708 10710 10712 10714 10717 10718 10720 10722 10725 10726 10728 10729 10730 10730 10730 10732 10733 10734 10734 10734 10733 10735 10737 10738 10741 10743 10745 10745 10746 10747 10748 10748 10751 10755 10758 10762 10765 10767 10768 10769 10772 10776 10780 10782 10785 10791 10797 10801 10804 10807 10811 10815 10819 10823 10827 10830 10833 10836 10840 10845 10849 10854 10861 10865 10866 10870 10871 10871 10872 10874 10877 10882 10884 10885 10886 10887 10887 10888 10889 10890 10890 10892 10894 10895 10896
10695 10697 10700 10702 10704 10707 10709 10711 10713 10714 10717 10719 10720 10722 10724 10725 10725 10726 10728 10730 10730 10730 10730 10731 10733 10734 10735 10737 10739 10740 10741 10740 10741 10742 10744 10747 10751 10754 10758 10760 10762 10763 10766 10769 10773 10776 10778 10782 10786 10791 10794 10796 10799 10804 10809 10814 10820 10824 10827 10830 10834 10839 10843 10846 10851 10856 10859 10863 10867 10868 10869 10871 10873 10877 10880 10882 10883 10884 10884 10884 10885 10887 10887 10887 10888 10890 10891 10892
10690 10691 10694 10696 10698 10701 10703 10706 10707 10709 10712 10714 10715 10717 10719 10720 10721 10722 10725 10726 10726 10726 10727 10728 10730 10731 10732 10733 10734 10735 10736 10735 10735 10736 10739 10743 10747 10750 10753 10755 10757 10759 10762 10765 10769 10773 10776 10778 10780 10784 10786 10788 10793 10799 10805 10810 10816 10820 10823 10826 10831 10837 10840 10843 10848 10852 10856 10861 10864 10865 10867 10870 10873 10875 10876 10878 10880 10881 10881 10882 10882 10883 10884 10884 10885 10887 10888 10888
10686 10686 10688 10690 10692 10694 10697 10700 10702 10704 10706 10708 10710 10711 10713 10715 10716 10719 10721 10723 10723 10723 10723 10725 10726 10728 10729 10730 10730 10730 10730 10731 10731 10732 10735 10739 10742 10745 10748 10750 10752 10755 10758 10761 10765 10769 10771 10773 10776 10779 10780 10782 10787 10794 10801 10806 10811 10816 10819 10822 10827 10832 10836 10841 10844 10846 10851 10857 10860 10862 10866 10869 10870 10872 10873 10875 10877 10878 10879 10879 10879 10880 10880 10881 10883 10884 10885 10885
10681 10682 10683 10684 10686 10688 10691 10694 10696 10698 10700 10703 10704 10706 10708 10710 10712 10715 10717 10719 10719 10719 10719 10721 10723 10724 10724 10725 10725 10725 10725 10725 10726 10727 10730 10734 10738 10741 10743 10745 10748 10751 10754 10757 10761 10764 10766 10769 10773 10775 10777 10779 10783 10790 10796 10801 10805 10810 10814 10819 10823 10827 10831 10837 10838 10839 10845 10852 10856 10860 10864 10865 10866 10868 10869 10872 10874 10875 10876 10876 10876 10877 10877 10879 10880 10881 10882 10882
10676 10677 10678 10679 10680 10682 10685 10688 10690 10692 10694 10696 10699 10700 10702 10705 10707 10711 10713 10714 10714 10714 10715 10717 10719 10719 10719 10720 10721 10721 10721 10720 10720 10721 10723 10727 10732 10736 10739 10741 10745 10747 10750 10754 10757 10759 10761 10764 10768 10771 10774 10776 10781 10786 10790 10793 10798 10803 10808 10813 10817 10821 10827 10832 10833 10834 10840 10847 10852 10858 10861 10861 10861 10863 10866 10868 10870 10871 10872 10872 10873 10874 10874 10875 10877 10878 10879 10879
10672 10672 10673 10674 10675 10676 10679 10681 10684 10686 10687 10690 10693 10695 10697 10700 10703 10706 10709 10709 10709 10710 10711 10713 10714 10714 10714 10715 10716 10717 10717 10716 10716 10716 10718 10721 10726 10730 10733 10737 10741 10743 10746 10750 10753 10755 10757 10760 10763 10767 10769 10773 10778 10782 10784 10787 10792 10796 10802 10808 10812 10817 10822 10826 10827 10830 10836 10842 10847 10852 10855 10855 10856 10858 10862 10864 10865 10866 10868 10869 10869 10870 10871 10872 10873 10874 10875 10876